Stations météo

réclame
Mon MeteoGroup
Zwiesel, Allemagne (10796): Température de l'air & dewpoint: 18.05.2019 03:00:00 - 24.05.2019 03:00:00 (CEST)Zwiesel, Allemagne (10796): Température de l'air 5cm & Température de l'air -5cm: 18.05.2019 03:00:00 - 24.05.2019 03:00:00 (CEST)Zwiesel, Allemagne (10796): Température de l'air -20cm & Température de l'air -100cm: 18.05.2019 03:00:00 - 24.05.2019 03:00:00 (CEST)Zwiesel, Allemagne (10796): Vitesse du vent & gusts: 18.05.2019 03:00:00 - 24.05.2019 03:00:00 (CEST)Zwiesel, Allemagne (10796): Direction du vent: 18.05.2019 03:00:00 - 24.05.2019 03:00:00 (CEST)Zwiesel, Allemagne (10796): reduced air pressure: 18.05.2019 03:00:00 - 24.05.2019 03:00:00 (CEST)Zwiesel, Allemagne (10796): visibility: 18.05.2019 03:00:00 - 24.05.2019 03:00:00 (CEST)Zwiesel, Allemagne (10796): Ensoleillement: 18.05.2019 03:00:00 - 24.05.2019 03:00:00 (CEST)Zwiesel, Allemagne (10796): Quantités de précipitations: 18.05.2019 03:00:00 - 24.05.2019 03:00:00 (CEST)
Date & Time tt [°C] td [°C] tt 5cm [°C] tt -5cm [°C] tt -20cm [°C] tt -100cm [°C] ff [km/h] ff [knt] fx [km/h] fx [knt] dd ppp [hPa] vv [km] sd [min] rr [mm]
24.05.2019 03:00:00 5,0 4,3 3,0 10,0 12,0 8,9 3 2 8 4 ESE 1019,0 16 0 0,0
24.05.2019 02:00:00 5,6 4,7 4,0 10,7 12,3 8,9 4 2 6 3 ENE 1019,4 18 0 0,0
24.05.2019 01:00:00 6,2 5,7 4,1 11,4 12,6 8,9 2 1 8 4 SE 1019,2 20 0 0,0
24.05.2019 00:00:00 7,6 6,0 5,2 12,3 12,9 8,8 4 2 6 4 ENE 1018,9 31 0 0,0
23.05.2019 23:00:00 8,5 6,6 5,9 13,3 13,0 8,8 0 0 8 4 N 1018,8 43 0 0,0
23.05.2019 22:00:00 10,5 6,7 6,8 14,4 13,1 8,8 4 2 6 3 NE 1018,3 54 0 0,0
23.05.2019 21:00:00 11,4 6,9 8,9 15,5 13,1 8,8 2 1 9 5 NW 1017,6 59 23 0,0
23.05.2019 20:00:00 14,7 5,9 14,0 16,4 13,0 8,8 6 3 14 8 N 1016,5 70 33 0,0
23.05.2019 19:00:00 16,0 5,1 17,2 17,3 12,8 8,8 9 5 23 12 NNW 1016,2 70 19 0,0
23.05.2019 18:00:00 16,9 5,4 20,1 17,9 12,6 8,8 11 6 25 13 NW 1016,0 53 39 0,0
23.05.2019 17:00:00 16,9 5,5 19,7 18,0 12,2 8,8 9 5 20 11 NNW 1016,2 70 19 0,0
23.05.2019 16:00:00 15,4 5,6 16,5 18,5 11,7 8,8 13 7 25 13 WNW 1016,9 53 21 0,0
23.05.2019 15:00:00 16,0 6,0 21,1 18,2 11,3 8,8 14 7 22 12 W 1017,1 48 40 0,0
23.05.2019 14:00:00 14,9 5,5 19,3 16,9 10,9 8,8 11 6 21 11 SW 1017,9 46 38 0,0
23.05.2019 13:00:00 14,6 5,6 20,5 15,4 10,6 8,8 4 2 20 11 ENE 1018,5 31 43 0,0
23.05.2019 12:00:00 12,2 5,9 14,9 14,1 10,3 8,8 7 4 15 8 SW 1019,6 47 0 0,0
23.05.2019 11:00:00 11,2 6,1 15,3 12,9 10,2 8,8 10 6 18 10 SW 1020,0 29 18 0,0
23.05.2019 10:00:00 10,6 5,9 13,3 11,5 10,1 8,8 7 4 12 7 W 1020,2 34 0 0,0
23.05.2019 09:00:00 9,5 6,6 11,7 10,4 10,2 8,8 9 5 12 7 WSW 1020,5 28 1 0,0
23.05.2019 08:00:00 8,8 6,0 9,3 9,9 10,3 8,8 4 2 8 4 WNW 1020,3 27 0 0,0
23.05.2019 07:00:00 7,4 6,4 7,5 9,8 10,4 8,8 3 1 6 3 W 1020,3 16 0 0,0
23.05.2019 06:00:00 7,2 6,0 6,7 10,0 10,5 8,8 3 2 5 3 W 1020,0 18 0 0,0
23.05.2019 05:00:00 8,0 6,6 7,4 10,2 10,6 8,8 4 2 9 5 WSW 1019,8 17 0 0,0
23.05.2019 04:00:00 8,8 6,0 7,9 10,5 10,7 8,8 5 3 20 11 N 1019,5 38 0 0,0
23.05.2019 03:00:00 9,5 6,2 9,2 10,7 10,8 8,8 10 5 16 9 N 1019,3 38 0 0,0
23.05.2019 02:00:00 8,9 7,9 8,4 10,9 10,9 8,7 3 2 10 6 W 1019,4 20 0 0,0
23.05.2019 01:00:00 9,5 8,7 9,2 11,2 11,0 8,7 3 2 5 3 N 1019,1 18 0 0,0
23.05.2019 00:00:00 9,9 8,6 9,4 11,4 11,1 8,7 0 0 8 4 N 1018,9 18 0 0,0
22.05.2019 23:00:00 10,5 8,5 9,9 11,6 11,2 8,7 4 2 19 11 W 1018,5 26 0 0,0
22.05.2019 22:00:00 11,0 8,2 10,7 11,9 11,2 8,7 12 7 25 13 W 1018,3 36 0 0,0
22.05.2019 21:00:00 11,1 9,0 10,7 12,2 11,2 8,7 13 7 31 17 W 1017,8 15 0 0,0
22.05.2019 20:00:00 11,4 9,2 11,4 12,5 11,2 8,7 17 9 29 16 W 1017,1 21 0 0,0
22.05.2019 19:00:00 11,4 9,4 11,0 12,9 11,1 8,7 14 7 28 15 W 1016,9 21 0 0,0
22.05.2019 18:00:00 11,9 8,9 11,6 13,4 11,0 8,7 22 12 40 22 W 1016,6 22 0 0,0
22.05.2019 17:00:00 12,8 9,7 13,8 13,3 10,9 8,7 13 7 32 17 W 1015,8 27 8 0,0
22.05.2019 16:00:00 12,2 9,6 13,6 12,3 10,9 8,7 18 10 30 16 W 1016,0 21 0 0,0
22.05.2019 15:00:00 11,0 9,3 11,1 11,8 11,0 8,7 17 9 27 14 W 1016,5 14 0 0,0
22.05.2019 14:00:00 10,6 9,4 10,5 11,7 11,0 8,7 15 8 27 14 W 1016,3 9 0 0,1
22.05.2019 13:00:00 10,8 9,0 10,4 11,8 11,0 8,7 13 7 33 18 W 1016,0 15 0 0,1
22.05.2019 12:00:00 10,5 9,3 10,6 11,9 11,0 8,7 13 7 29 16 W 1015,3 9 0 0,0
22.05.2019 11:00:00 10,8 9,5 11,0 11,9 11,0 8,7 16 8 28 15 W 1014,7 10 0 0,0
22.05.2019 10:00:00 10,9 9,6 10,8 11,9 11,1 8,6 16 8 27 15 W 1014,1 9 0 0,1
22.05.2019 09:00:00 11,2 10,0 11,0 11,8 11,1 8,6 15 8 27 15 W 1013,6 12 0 0,0
22.05.2019 08:00:00 11,1 10,1 11,2 11,7 11,1 8,6 6 3 19 10 WNW 1013,2 17 0 0,1
22.05.2019 07:00:00 11,1 10,4 11,0 11,7 11,2 8,6 5 3 24 13 W 1012,8 10 0 0,0
22.05.2019 06:00:00 11,3 10,5 11,1 11,8 11,3 8,6 9 5 21 12 W 1011,9 13 0 0,0
22.05.2019 05:00:00 11,4 10,7 11,2 11,9 11,3 8,6 6 3 8 4 W 1011,5 17 0 0,0
22.05.2019 04:00:00 11,4 10,9 11,3 12,0 11,4 8,6 2 1 10 5 WSW 1011,4 11 0 0,0
22.05.2019 03:00:00 11,3 11,1 11,2 12,1 11,5 8,6 4 2 9 5 W 1011,0 11 0 0,0
22.05.2019 02:00:00 11,2 10,9 11,2 12,2 11,5 8,6 0 0 5 3 N 1010,9 4,0 0 0,0
22.05.2019 01:00:00 11,4 11,1 11,4 12,4 11,6 8,6 4 2 7 4 SE 1010,7 8 0 0,0
22.05.2019 00:00:00 11,5 11,1 11,5 12,5 11,6 8,6 5 3 7 4 S 1010,6 9 0 0,2
21.05.2019 23:00:00 11,5 11,1 11,6 12,7 11,7 8,6 3 2 9 5 NW 1010,5 3,6 0 0,1
21.05.2019 22:00:00 11,5 11,1 11,5 12,8 11,7 8,6 5 3 11 6 SW 1010,0 9 0 0,0
21.05.2019 21:00:00 11,5 11,1 11,5 13,0 11,7 8,6 8 4 13 7 SW 1009,5 5 0 0,1
21.05.2019 20:00:00 11,5 11,1 11,8 13,3 11,7 8,5 4 2 9 5 SSW 1008,9 4,3 0 0,1
21.05.2019 19:00:00 11,7 10,7 11,8 13,5 11,7 8,5 6 4 10 5 SW 1008,5 6 0 0,0
21.05.2019 18:00:00 11,9 10,3 12,2 13,8 11,7 8,5 5 3 17 9 SW 1008,1 56 0 0,0
21.05.2019 17:00:00 11,7 10,5 12,2 13,9 11,6 8,5 8 4 22 12 SW 1007,9 18 0 0,0
21.05.2019 16:00:00 11,9 10,4 12,5 14,0 11,5 8,5 11 6 22 12 SW 1007,5 20 0 0,0
21.05.2019 15:00:00 11,8 10,5 12,8 13,8 11,4 8,5 9 5 28 15 SW 1007,1 22 0 0,2
21.05.2019 14:00:00 11,2 10,3 11,9 13,6 11,3 8,5 13 7 30 16 SW 1006,6 4,4 0 0,7
21.05.2019 13:00:00 11,4 10,7 12,1 13,6 11,2 8,5 16 8 25 13 WSW 1005,9 2,5 0 1,5
21.05.2019 12:00:00 12,0 11,0 12,7 13,4 11,1 8,5 7 4 10 5 SSW 1005,0 4,4 0 1,1
21.05.2019 11:00:00 11,9 10,0 12,7 12,8 11,0 8,5 3 1 5 3 WSW 1004,5 29 0 0,1
21.05.2019 10:00:00 11,2 9,9 12,2 12,3 11,0 8,5 3 2 5 3 S 1004,2 12 0 0,0
21.05.2019 09:00:00 10,8 9,5 12,1 11,8 11,1 8,5 3 1 7 4 SE 1003,7 70 0 0,0
21.05.2019 08:00:00 10,3 9,3 11,4 11,5 11,1 8,5 4 2 7 4 SE 1003,3 67 0 0,0
21.05.2019 07:00:00 10,1 9,8 10,3 11,4 11,2 8,4 3 1 5 3 W 1002,9 8 0 0,0
21.05.2019 06:00:00 9,7 9,3 10,0 11,5 11,3 8,4 0 0 6 3 N 1002,7 14 0 0,0
21.05.2019 05:00:00 9,8 9,6 9,9 11,6 11,4 8,4 0 0 4 2 N 1002,6 9 0 0,0
21.05.2019 04:00:00 9,7 9,4 10,0 11,8 11,5 8,4 0 0 3 2 N 1002,4 21 0 0,0
21.05.2019 03:00:00 10,0 9,5 9,9 12,0 11,6 8,4 0 0 4 2 N 1002,3 28 0 0,0
21.05.2019 02:00:00 10,3 9,7 10,4 12,1 11,7 8,4 2 1 11 6 N 1002,1 47 0 0,0
21.05.2019 01:00:00 10,6 9,7 10,6 12,3 11,8 8,4 5 3 11 6 SSE 1001,8 57 0 0,0
21.05.2019 00:00:00 10,6 9,8 10,6 12,5 11,9 8,4 5 3 9 5 SE 1001,9 28 0 0,2
20.05.2019 23:00:00 10,5 10,2 10,4 12,8 12,0 8,4 3 1 5 3 N 1001,7 2,6 0 1,4
20.05.2019 22:00:00 10,6 10,2 10,7 13,2 12,0 8,4 4 2 6 4 E 1001,9 8 0 1,6
20.05.2019 21:00:00 11,1 10,5 11,3 13,7 12,0 8,4 3 1 4 2 ENE 1001,7 7 0 1,5
20.05.2019 20:00:00 11,6 10,5 11,7 14,1 12,0 8,4 2 1 9 5 SW 1001,4 7 0 1,3
20.05.2019 19:00:00 11,9 10,3 12,1 14,5 11,9 8,3 6 3 11 6 SSW 1001,3 9 0 0,6
20.05.2019 18:00:00 12,0 10,1 12,6 14,7 11,8 8,3 6 3 16 8 S 1001,1 11 0 0,6
20.05.2019 17:00:00 12,5 10,8 13,0 14,8 11,6 8,3 6 4 10 5 SSE 1001,1 8 0 0,2
20.05.2019 16:00:00 12,8 11,2 13,7 14,6 11,5 8,3 4 2 10 6 SSE 1001,1 7 0 0,4
20.05.2019 15:00:00 12,4 10,9 13,4 14,5 11,3 8,3 8 5 13 7 SE 1001,2 10 0 0,2
20.05.2019 14:00:00 12,8 9,8 12,7 14,1 11,2 8,3 6 3 10 6 W 1001,1 18 0 0,3
20.05.2019 13:00:00 12,8 11,1 13,5 13,7 11,0 8,3 6 3 10 5 SW 1000,9 6 0 1,6
20.05.2019 12:00:00 12,7 11,1 13,7 13,3 10,9 8,3 5 3 11 6 WSW 1000,9 7 0 0,7
20.05.2019 11:00:00 13,0 11,3 12,9 13,0 10,8 8,3 3 2 7 4 WSW 1000,8 7 0 1,5
20.05.2019 10:00:00 13,5 10,2 13,4 12,8 10,7 8,3 4 2 11 6 NNW 1000,7 13 0 0,0
20.05.2019 09:00:00 13,4 10,8 14,9 11,8 10,8 8,3 5 3 13 7 N 1000,5 21 25 0,0
20.05.2019 08:00:00 11,9 10,9 12,0 10,5 10,9 8,3 4 2 8 4 NNE 1000,6 12 0 0,0
20.05.2019 07:00:00 8,6 8,2 8,7 10,1 11,1 8,2 3 2 10 5 ENE 1001,6 4,1 0 0,0
20.05.2019 06:00:00 7,9 7,9 6,5 10,3 11,3 8,2 2 1 5 3 N 1002,1 0,3 0 0,0
20.05.2019 05:00:00 8,1 8,1 6,8 10,6 11,5 8,2 2 1 7 4 NNW 1002,2 1,7 0 0,0
20.05.2019 04:00:00 8,1 8,0 7,6 10,9 11,7 8,2 6 3 9 5 E 1002,7 4,6 0 0,0
20.05.2019 03:00:00 8,8 8,5 7,9 11,2 11,9 8,2 2 1 12 7 SSE 1002,8 3,4 0 0,0
20.05.2019 02:00:00 9,4 8,8 8,6 11,6 12,1 8,2 5 3 14 8 E 1002,8 9 0 0,0
20.05.2019 01:00:00 10,5 9,3 9,1 12,0 12,3 8,2 9 5 15 8 NNE 1002,9 17 0 0,0
20.05.2019 00:00:00 10,8 9,7 9,4 12,5 12,5 8,2 6 3 15 8 NE 1002,5 11 0 0,0
19.05.2019 23:00:00 11,2 9,9 9,8 13,1 12,7 8,2 9 5 15 8 NE 1002,5 15 0 0,0
19.05.2019 22:00:00 10,5 9,9 9,3 13,8 12,8 8,2 3 2 15 8 E 1003,1 6 0 0,0
19.05.2019 21:00:00 11,5 10,5 10,8 14,4 12,9 8,2 5 3 13 7 NE 1002,9 15 0 0,0
19.05.2019 20:00:00 12,4 10,8 12,2 14,9 13,0 8,2 6 4 17 9 N 1002,8 20 0 0,9
19.05.2019 19:00:00 12,5 11,0 12,0 15,5 13,0 8,2 10 6 16 9 NE 1003,2 3,3 0 1,8
19.05.2019 18:00:00 12,5 10,6 12,0 16,4 12,9 8,1 8 4 37 20 NNE 1003,2 12 10 4,6
19.05.2019 17:00:00 13,1 10,9 13,7 17,1 12,6 8,1 23 12 42 23 N 1002,4 22 0 0,6
19.05.2019 16:00:00 11,9 9,6 12,0 19,0 12,1 8,1 11 6 39 21 NE 1003,4 3,6 1 9,0
19.05.2019 15:00:00 19,1 10,3 20,9 20,3 11,6 8,1 18 10 27 15 NNW 1000,7 29 32 0,0
19.05.2019 14:00:00 20,1 8,3 24,9 18,7 11,0 8,1 10 5 19 11 W 1000,7 34 33 0,0
19.05.2019 13:00:00 19,1 6,9 23,0 17,6 10,6 8,1 11 6 22 12 SW 1001,5 33 43 0,0
19.05.2019 12:00:00 18,8 7,6 23,0 15,8 10,2 8,1 12 7 18 10 W 1001,7 31 60 0,0
19.05.2019 11:00:00 17,7 6,7 21,9 13,8 10,1 8,1 8 4 14 7 WSW 1002,0 39 60 0,0
19.05.2019 10:00:00 14,4 8,2 17,5 11,2 10,1 8,1 2 1 5 3 W 1003,4 32 28 0,0
19.05.2019 09:00:00 10,6 6,4 12,1 10,0 10,3 8,1 2 1 6 3 W 1004,7 29 6 0,0
19.05.2019 08:00:00 9,4 5,2 9,5 9,5 10,5 8,1 4 2 5 3 WSW 1004,9 32 46 0,0
19.05.2019 07:00:00 7,3 4,5 7,4 8,8 10,8 8,1 0 0 10 5 N 1005,6 21 34 0,0
19.05.2019 06:00:00 5,2 4,3 3,2 9,2 11,0 8,1 4 2 9 5 SSE 1006,3 17 0 0,0
19.05.2019 05:00:00 7,0 5,1 3,9 9,8 11,3 8,1 4 2 13 7 ESE 1005,8 23 0 0,0
19.05.2019 04:00:00 7,7 5,7 5,4 10,4 11,6 8,1 8 4 15 8 NNE 1005,6 22 0 0,0
19.05.2019 03:00:00 8,0 6,2 4,7 11,1 11,8 8,1 3 2 9 5 NE 1005,6 18 0 0,0
19.05.2019 02:00:00 9,2 7,0 6,2 11,9 12,0 8,1 4 2 14 8 E 1005,4 17 0 0,0
19.05.2019 01:00:00 10,7 7,9 8,0 12,7 12,2 8,1 5 3 12 6 NNE 1005,4 18 0 0,0
19.05.2019 00:00:00 12,5 8,3 9,0 13,4 12,4 8,1 5 3 10 5 NNE 1005,1 24 0 0,0
18.05.2019 23:00:00 14,3 8,7 12,0 14,1 12,5 8,1 7 4 19 10 NE 1004,9 19 0 0,0
18.05.2019 22:00:00 15,2 9,0 13,4 14,8 12,5 8,1 7 4 13 7 E 1004,5 27 0 0,0
18.05.2019 21:00:00 15,8 7,7 12,9 15,7 12,4 8,1 5 3 10 5 E 1004,0 42 0 0,0
18.05.2019 20:00:00 17,2 4,5 15,7 16,5 12,3 8,1 4 2 18 10 SE 1003,5 70 24 0,0
18.05.2019 19:00:00 18,6 2,5 19,7 17,0 12,1 8,1 9 5 21 12 SE 1003,2 70 48 0,0
18.05.2019 18:00:00 18,6 1,9 20,5 17,3 11,9 8,1 9 5 22 12 SSE 1003,3 70 49 0,0
18.05.2019 17:00:00 18,6 3,1 21,9 16,7 11,7 8,1 13 7 22 12 ESE 1003,6 70 45 0,0
18.05.2019 16:00:00 16,1 9,3 16,7 16,7 11,4 8,1 13 7 23 12 NNE 1004,2 53 0 0,0
18.05.2019 15:00:00 16,9 8,5 17,6 17,1 11,0 8,1 8 4 19 11 NE 1004,2 64 0 0,0
18.05.2019 14:00:00 17,5 5,9 18,8 17,6 10,5 8,1 10 5 23 12 W 1004,0 70 7 0,0
18.05.2019 13:00:00 18,0 5,7 21,4 17,6 9,9 8,1 11 6 27 14 S 1004,0 70 46 0,0
18.05.2019 12:00:00 17,8 4,5 23,1 16,4 9,5 8,1 13 7 22 12 SSW 1004,1 41 60 0,0
18.05.2019 11:00:00 16,8 4,5 21,4 14,4 9,2 8,1 8 4 15 8 WSW 1004,5 58 60 0,0
18.05.2019 10:00:00 15,8 6,5 18,9 12,2 9,0 8,1 4 2 9 5 WSW 1005,0 63 60 0,0
18.05.2019 09:00:00 13,0 5,9 16,2 10,0 9,1 8,1 3 1 8 4 W 1005,9 67 60 0,0
18.05.2019 08:00:00 9,9 5,5 13,8 8,1 9,3 8,1 3 1 6 3 SW 1006,5 51 60 0,0
18.05.2019 07:00:00 5,4 3,6 6,6 7,3 9,6 8,1 3 1 8 4 SW 1007,8 25 35 0,0
18.05.2019 06:00:00 3,9 3,7 1,6 7,6 9,9 8,1 0 0 7 4 N 1008,1 13 0 0,0
18.05.2019 05:00:00 4,1 3,2 2,5 8,2 10,2 8,1 4 2 8 4 NE 1008,0 28 0 0,0
18.05.2019 04:00:00 4,6 4,2 2,4 8,8 10,5 8,1 4 2 7 4 E 1008,1 29 0 0,0
18.05.2019 03:00:00 5,6 4,8 3,5 9,5 10,8 8,1 4 2 11 6 E 1008,2 35 0 0,0

tt = Température de l'air
td = dewpoint
tt 5cm = Température de l'air 5cm
tt -5cm = Température de l'air -5cm
tt -20cm = Température de l'air -20cm
tt -100cm = Température de l'air -100cm
ff = Vitesse du vent
fx = gusts
dd = Direction du vent
ppp = reduced air pressure
vv = visibility
sd = Ensoleillement
rr = Quantités de précipitations

stations d'obs. à proximité